STARLINK-1661 (46355 NORAD) Tracking and Keplerian Element Data

This shows tracking and keplerian element data for the satellite.

Feedback or suggestion? Click here.




ElementValue
Catalog46355
NameSTARLINK-1661
Epoch Orbit176
Epoch Day26.91667824
Epoch Year2021
RAAN121.3606
Inclination53.0572
Eccentricity0.0001584
Argument of Perigee62.9689
Mean Anonmoly345.6588
Mean Motion15.06438542
Decay Rate-0.00082506
L11 46355U 20062AG 21026.91667824 -.00082506 00000-0 -55788-2 0 9995
L22 46355 53.0572 121.3606 0001584 62.9689 345.6588 15.06438542 1765

Live tracking and technical data element details for STARLINK-1661 (NORAD 46355). STARLINK-1661 can be tracked NOW for your location showing map with azimuth and elevation plus other details from your city location.

Track the satellite on the map from your city or location and see movement details for azimuth, elevation, latitude, longitude, range, height, and movement on the map or in text.







IsCatalogInMostPopularTable: catalog: 46355, numindb: 60
Update: records affected: 1



GetName: 46355 STARLINK-1661

Hit Count: updated at: Thu, 28 Jan 2021 13:05:14 GMT